| time (UTC) | temp F | wind direction | speed MPH | gust MPH | rain 1hr in | rain 24hr in | rain mn in | humidity % | barometer mb |
| 20260507213559 | 46 | 44 | 1.0 | 5.0 | 0.00 | 0.00 | 0.00 | 80 | 1019.5 |
| 20260507213107 | 46 | 43 | 3.0 | 5.0 | 0.00 | 0.00 | 0.00 | 80 | 1019.5 |
| 20260507212559 | 46 | 49 | 1.0 | 5.0 | 0.00 | 0.00 | 0.00 | 80 | 1019.5 |
| 20260507212100 | 46 | 20 | 2.0 | 8.0 | 0.00 | 0.00 | 0.00 | 80 | 1019.5 |
| 20260507211604 | 46 | 333 | 1.0 | 9.0 | 0.00 | 0.00 | 0.00 | 80 | 1019.5 |
| 20260507211100 | 46 | 336 | 1.0 | 9.0 | 0.00 | 0.00 | 0.00 | 80 | 1019.4 |
| 20260507210559 | 46 | 317 | 1.0 | 4.0 | 0.00 | 0.00 | 0.00 | 81 | 1019.4 |
| 20260507210100 | 46 | 294 | 0.0 | 4.0 | 0.00 | 0.00 | 0.00 | 81 | 1019.4 |
| 20260507205601 | 46 | 29 | 2.0 | 4.0 | 0.00 | 0.00 | 0.00 | 81 | 1019.4 |
| 20260507205104 | 46 | 56 | 0.0 | 5.0 | 0.00 | 0.00 | 0.00 | 81 | 1019.4 |
| 20260507204603 | 47 | 16 | 0.0 | 3.0 | 0.00 | 0.00 | 0.00 | 81 | 1019.4 |
| 20260507204503 | 47 | 17 | 0.0 | 3.0 | 0.00 | 0.00 | 0.00 | 81 | 1019.4 |
| 20260507204102 | 47 | 289 | 0.0 | 3.0 | 0.00 | 0.00 | 0.00 | 80 | 1019.4 |
| 20260507204001 | 47 | 319 | 0.0 | 3.0 | 0.00 | 0.00 | 0.00 | 80 | 1019.4 |
| 20260507203600 | 47 | 317 | 0.0 | 3.0 | 0.00 | 0.00 | 0.00 | 80 | 1019.4 |
| 20260507203101 | 47 | 17 | 1.0 | 5.0 | 0.00 | 0.00 | 0.00 | 80 | 1019.3 |
| 20260507202501 | 47 | 65 | 2.0 | 5.0 | 0.00 | 0.00 | 0.00 | 80 | 1019.2 |
| 20260507202101 | 47 | 78 | 2.0 | 4.0 | 0.00 | 0.00 | 0.00 | 80 | 1019.2 |
| 20260507201605 | 47 | 336 | 1.0 | 4.0 | 0.00 | 0.00 | 0.00 | 80 | 1019.1 |
| 20260507201501 | 47 | 39 | 1.0 | 4.0 | 0.00 | 0.00 | 0.00 | 80 | 1019.2 |
| 20260507201101 | 47 | 326 | 0.0 | 5.0 | 0.00 | 0.00 | 0.00 | 80 | 1019.1 |
| 20260507201001 | 47 | 76 | 1.0 | 5.0 | 0.00 | 0.00 | 0.00 | 80 | 1019.0 |
| 20260507200600 | 47 | 39 | 2.0 | 6.0 | 0.00 | 0.00 | 0.00 | 79 | 1019.0 |
| 20260507195601 | 47 | 38 | 1.0 | 5.0 | 0.00 | 0.00 | 0.00 | 79 | 1018.9 |
| 20260507195100 | 47 | 16 | 2.0 | 4.0 | 0.00 | 0.00 | 0.00 | 79 | 1018.9 |
| 20260507194608 | 47 | 50 | 1.0 | 9.0 | 0.00 | 0.00 | 0.00 | 78 | 1019.0 |
| 20260507194103 | 48 | 312 | 3.0 | 9.0 | 0.00 | 0.00 | 0.00 | 78 | 1018.9 |
| 20260507193602 | 48 | 320 | 1.0 | 9.0 | 0.00 | 0.00 | 0.00 | 78 | 1018.9 |
| 20260507193059 | 48 | 57 | 2.0 | 9.0 | 0.00 | 0.00 | 0.00 | 77 | 1018.9 |
| 20260507193001 | 48 | 19 | 3.0 | 10.0 | 0.00 | 0.00 | 0.00 | 77 | 1018.9 |
| 20260507192559 | 48 | 38 | 3.0 | 11.0 | 0.00 | 0.00 | 0.00 | 77 | 1018.9 |
| 20260507192059 | 48 | 13 | 5.0 | 11.0 | 0.00 | 0.00 | 0.00 | 77 | 1018.8 |
| 20260507191617 | 48 | 317 | 3.0 | 9.0 | 0.00 | 0.00 | 0.00 | 77 | 1018.6 |
| 20260507191059 | 48 | 41 | 2.0 | 6.0 | 0.00 | 0.00 | 0.00 | 77 | 1018.5 |
| 20260507190600 | 48 | 344 | 3.0 | 10.0 | 0.00 | 0.00 | 0.00 | 77 | 1018.4 |
| 20260507190100 | 48 | 42 | 5.0 | 10.0 | 0.00 | 0.00 | 0.00 | 77 | 1018.3 |
| 20260507190006 | 48 | 324 | 5.0 | 10.0 | 0.00 | 0.00 | 0.00 | 77 | 1018.3 |
| 20260507185559 | 48 | 38 | 3.0 | 10.0 | 0.00 | 0.00 | 0.00 | 77 | 1018.3 |
| 20260507185100 | 48 | 32 | 4.0 | 10.0 | 0.00 | 0.00 | 0.00 | 77 | 1018.3 |
| 20260507184501 | 48 | 42 | 4.0 | 10.0 | 0.00 | 0.00 | 0.00 | 77 | 1018.2 |
| 20260507184100 | 48 | 27 | 4.0 | 10.0 | 0.00 | 0.00 | 0.00 | 76 | 1018.3 |
| 20260507184001 | 48 | 39 | 3.0 | 10.0 | 0.00 | 0.00 | 0.00 | 76 | 1018.2 |
| 20260507183600 | 49 | 42 | 5.0 | 11.0 | 0.00 | 0.00 | 0.00 | 76 | 1018.3 |
| 20260507183104 | 49 | 49 | 6.0 | 12.0 | 0.00 | 0.00 | 0.00 | 76 | 1018.2 |
| 20260507182603 | 49 | 19 | 4.0 | 14.0 | 0.00 | 0.00 | 0.00 | 77 | 1018.1 |
| 20260507182100 | 49 | 38 | 5.0 | 14.0 | 0.00 | 0.00 | 0.00 | 77 | 1018.0 |
| 20260507182002 | 49 | 36 | 5.0 | 14.0 | 0.00 | 0.00 | 0.00 | 77 | 1017.9 |
| 20260507181600 | 49 | 307 | 5.0 | 14.0 | 0.00 | 0.00 | 0.00 | 78 | 1017.9 |
| 20260507181100 | 49 | 43 | 3.0 | 6.0 | 0.00 | 0.00 | 0.00 | 78 | 1017.8 |
| 20260507180601 | 49 | 341 | 3.0 | 6.0 | 0.00 | 0.00 | 0.00 | 77 | 1017.7 |
| 20260507180501 | 49 | 51 | 4.0 | 7.0 | 0.00 | 0.00 | 0.00 | 77 | 1017.6 |
| 20260507180106 | 49 | 61 | 2.0 | 7.0 | 0.00 | 0.00 | 0.00 | 77 | 1017.6 |
| 20260507175559 | 49 | 34 | 2.0 | 7.0 | 0.00 | 0.00 | 0.00 | 77 | 1017.6 |
| 20260507175100 | 49 | 32 | 4.0 | 9.0 | 0.00 | 0.00 | 0.00 | 77 | 1017.5 |
| 20260507174600 | 49 | 70 | 3.0 | 9.0 | 0.00 | 0.00 | 0.00 | 77 | 1017.4 |
| 20260507174103 | 49 | 331 | 3.0 | 9.0 | 0.00 | 0.00 | 0.00 | 76 | 1017.4 |
| 20260507173601 | 49 | 57 | 3.0 | 12.0 | 0.00 | 0.00 | 0.00 | 76 | 1017.4 |
| 20260507173059 | 50 | 30 | 7.0 | 12.0 | 0.00 | 0.00 | 0.00 | 76 | 1017.4 |
| 20260507172600 | 50 | 29 | 2.0 | 8.0 | 0.00 | 0.00 | 0.00 | 76 | 1017.4 |
| 20260507172100 | 50 | 23 | 4.0 | 9.0 | 0.00 | 0.00 | 0.00 | 76 | 1017.3 |
| 20260507171559 | 50 | 52 | 2.0 | 9.0 | 0.00 | 0.00 | 0.00 | 77 | 1017.3 |
| 20260507171059 | 50 | 41 | 3.0 | 9.0 | 0.00 | 0.00 | 0.00 | 77 | 1017.3 |
| 20260507170600 | 50 | 338 | 4.0 | 9.0 | 0.00 | 0.00 | 0.00 | 78 | 1017.2 |
| 20260507165559 | 50 | 49 | 1.0 | 6.0 | 0.00 | 0.00 | 0.00 | 78 | 1017.2 |
| 20260507165059 | 50 | 17 | 3.0 | 6.0 | 0.00 | 0.00 | 0.00 | 78 | 1017.0 |
| 20260507164631 | 50 | 322 | 1.0 | 5.0 | 0.00 | 0.00 | 0.00 | 78 | 1017.1 |
| 20260507164059 | 50 | 5 | 1.0 | 5.0 | 0.00 | 0.00 | 0.00 | 78 | 1017.1 |
| 20260507163600 | 50 | 336 | 2.0 | 5.0 | 0.00 | 0.00 | 0.00 | 77 | 1017.1 |
| 20260507163101 | 50 | 298 | 1.0 | 4.0 | 0.00 | 0.00 | 0.00 | 77 | 1017.1 |
| 20260507162600 | 50 | 347 | 0.0 | 6.0 | 0.00 | 0.00 | 0.00 | 77 | 1017.1 |
| 20260507162059 | 50 | 336 | 2.0 | 7.0 | 0.00 | 0.00 | 0.00 | 76 | 1017.1 |
| 20260507161607 | 51 | 304 | 1.0 | 6.0 | 0.00 | 0.00 | 0.00 | 76 | 1017.1 |
| 20260507161100 | 51 | 321 | 1.0 | 5.0 | 0.00 | 0.00 | 0.00 | 76 | 1017.1 |
| 20260507160559 | 51 | 25 | 2.0 | 4.0 | 0.00 | 0.00 | 0.00 | 76 | 1017.1 |
| 20260507160100 | 51 | 82 | 0.0 | 3.0 | 0.00 | 0.00 | 0.00 | 76 | 1017.1 |
| 20260507160003 | 51 | 71 | 0.0 | 3.0 | 0.00 | 0.00 | 0.00 | 76 | 1017.1 |
| 20260507155559 | 51 | 41 | 0.0 | 6.0 | 0.00 | 0.00 | 0.00 | 76 | 1017.1 |
| 20260507155059 | 51 | 22 | 1.0 | 6.0 | 0.00 | 0.00 | 0.00 | 76 | 1017.1 |
| 20260507154559 | 51 | 105 | 1.0 | 7.0 | 0.00 | 0.00 | 0.00 | 77 | 1017.0 |
| 20260507154059 | 51 | 41 | 2.0 | 7.0 | 0.00 | 0.00 | 0.00 | 77 | 1017.0 |
| 20260507153600 | 51 | 46 | 4.0 | 10.0 | 0.00 | 0.00 | 0.00 | 76 | 1016.9 |
| 20260507153059 | 51 | 68 | 4.0 | 10.0 | 0.00 | 0.00 | 0.00 | 77 | 1016.9 |
| 20260507152559 | 51 | 41 | 2.0 | 11.0 | 0.00 | 0.00 | 0.00 | 78 | 1016.8 |
| 20260507152103 | 51 | 28 | 4.0 | 12.0 | 0.00 | 0.00 | 0.00 | 78 | 1016.8 |
| 20260507151604 | 51 | 23 | 4.0 | 12.0 | 0.00 | 0.00 | 0.00 | 78 | 1016.7 |
| 20260507151059 | 51 | 19 | 4.0 | 11.0 | 0.00 | 0.00 | 0.00 | 77 | 1016.7 |
| 20260507150558 | 51 | 25 | 4.0 | 9.0 | 0.00 | 0.00 | 0.00 | 77 | 1016.7 |
| 20260507150059 | 51 | 17 | 4.0 | 9.0 | 0.00 | 0.00 | 0.00 | 76 | 1016.7 |
| 20260507150001 | 51 | 38 | 3.0 | 9.0 | 0.00 | 0.00 | 0.00 | 76 | 1016.7 |
| 20260507145601 | 51 | 51 | 5.0 | 11.0 | 0.00 | 0.00 | 0.00 | 75 | 1016.7 |
| 20260507145100 | 51 | 38 | 5.0 | 11.0 | 0.00 | 0.00 | 0.00 | 75 | 1016.7 |
| 20260507144604 | 51 | 61 | 1.0 | 9.0 | 0.00 | 0.00 | 0.00 | 75 | 1016.6 |
| 20260507144100 | 51 | 43 | 2.0 | 10.0 | 0.00 | 0.00 | 0.00 | 75 | 1016.5 |
| 20260507143559 | 51 | 346 | 3.0 | 9.0 | 0.00 | 0.00 | 0.00 | 75 | 1016.5 |
| 20260507143110 | 51 | 336 | 3.0 | 10.0 | 0.00 | 0.00 | 0.00 | 74 | 1016.5 |
| 20260507142600 | 52 | 350 | 4.0 | 9.0 | 0.00 | 0.00 | 0.00 | 74 | 1016.5 |
| 20260507142100 | 52 | 305 | 2.0 | 9.0 | 0.00 | 0.00 | 0.00 | 73 | 1016.6 |
| 20260507141624 | 52 | 53 | 3.0 | 11.0 | 0.00 | 0.00 | 0.00 | 73 | 1016.5 |
| 20260507141100 | 52 | 41 | 5.0 | 11.0 | 0.00 | 0.00 | 0.00 | 73 | 1016.5 |
| 20260507140602 | 52 | 20 | 3.0 | 8.0 | 0.00 | 0.00 | 0.00 | 73 | 1016.5 |
| 20260507140100 | 52 | 304 | 2.0 | 6.0 | 0.00 | 0.00 | 0.00 | 73 | 1016.6 |
| 20260507135600 | 52 | 350 | 3.0 | 9.0 | 0.00 | 0.00 | 0.00 | 73 | 1016.5 |
| 20260507135059 | 52 | 90 | 3.0 | 12.0 | 0.00 | 0.00 | 0.00 | 74 | 1016.5 |
| 20260507134612 | 52 | 349 | 2.0 | 7.0 | 0.00 | 0.00 | 0.00 | 74 | 1016.5 |
| 20260507134059 | 52 | 57 | 4.0 | 9.0 | 0.00 | 0.00 | 0.00 | 73 | 1016.4 |
| 20260507133559 | 52 | 329 | 3.0 | 9.0 | 0.00 | 0.00 | 0.00 | 74 | 1016.5 |
| 20260507133110 | 51 | 57 | 2.0 | 9.0 | 0.00 | 0.00 | 0.00 | 73 | 1016.5 |
| 20260507132559 | 51 | 39 | 4.0 | 9.0 | 0.00 | 0.00 | 0.00 | 74 | 1016.3 |
| 20260507132102 | 51 | 59 | 2.0 | 8.0 | 0.00 | 0.00 | 0.00 | 74 | 1016.3 |
| 20260507131613 | 51 | 246 | 2.0 | 8.0 | 0.00 | 0.00 | 0.00 | 74 | 1016.3 |
| 20260507131059 | 52 | 50 | 3.0 | 7.0 | 0.00 | 0.00 | 0.00 | 74 | 1016.3 |
| 20260507130559 | 52 | 28 | 4.0 | 9.0 | 0.00 | 0.00 | 0.00 | 72 | 1016.2 |
| 20260507130059 | 52 | 74 | 5.0 | 9.0 | 0.00 | 0.00 | 0.00 | 72 | 1016.2 |
| 20260507130000 | 52 | 57 | 5.0 | 9.0 | 0.00 | 0.00 | 0.00 | 72 | 1016.2 |
| 20260507125600 | 52 | 52 | 3.0 | 9.0 | 0.00 | 0.00 | 0.00 | 72 | 1016.1 |
| 20260507125100 | 52 | 27 | 5.0 | 9.0 | 0.00 | 0.00 | 0.00 | 73 | 1016.0 |
| 20260507124600 | 52 | 57 | 5.0 | 9.0 | 0.00 | 0.00 | 0.00 | 73 | 1016.0 |
| 20260507124059 | 52 | 53 | 3.0 | 9.0 | 0.00 | 0.00 | 0.00 | 74 | 1015.9 |
| 20260507123600 | 52 | 63 | 2.0 | 7.0 | 0.00 | 0.00 | 0.00 | 75 | 1016.0 |
| 20260507123117 | 51 | 11 | 2.0 | 7.0 | 0.00 | 0.00 | 0.00 | 76 | 1015.9 |
| 20260507122601 | 51 | 314 | 1.0 | 5.0 | 0.00 | 0.00 | 0.00 | 77 | 1015.8 |
| 20260507122059 | 50 | 315 | 1.0 | 6.0 | 0.00 | 0.00 | 0.00 | 78 | 1015.8 |
| 20260507121600 | 50 | 311 | 1.0 | 9.0 | 0.00 | 0.00 | 0.00 | 77 | 1015.9 |
| 20260507121100 | 50 | 11 | 2.0 | 10.0 | 0.00 | 0.00 | 0.00 | 77 | 1016.0 |
| 20260507120558 | 50 | 42 | 3.0 | 10.0 | 0.00 | 0.00 | 0.00 | 77 | 1015.9 |
| 20260507120059 | 50 | 29 | 4.0 | 10.0 | 0.00 | 0.00 | 0.00 | 76 | 1015.9 |
| 20260507115600 | 51 | 311 | 2.0 | 7.0 | 0.00 | 0.00 | 0.00 | 76 | 1015.8 |
| 20260507115059 | 51 | 27 | 1.0 | 7.0 | 0.00 | 0.00 | 0.00 | 76 | 1015.8 |
| 20260507114601 | 51 | 98 | 3.0 | 7.0 | 0.00 | 0.00 | 0.00 | 76 | 1015.8 |
| 20260507114059 | 50 | 48 | 2.0 | 6.0 | 0.00 | 0.00 | 0.00 | 76 | 1015.8 |
| 20260507113559 | 50 | 41 | 2.0 | 12.0 | 0.00 | 0.00 | 0.00 | 77 | 1015.8 |
| 20260507113059 | 50 | 61 | 5.0 | 12.0 | 0.00 | 0.00 | 0.00 | 77 | 1015.7 |
| 20260507112600 | 50 | 47 | 5.0 | 9.0 | 0.00 | 0.00 | 0.00 | 77 | 1015.7 |
| 20260507112100 | 50 | 18 | 2.0 | 9.0 | 0.00 | 0.00 | 0.00 | 77 | 1015.8 |
| 20260507111600 | 50 | 59 | 4.0 | 9.0 | 0.00 | 0.00 | 0.00 | 77 | 1015.8 |
| 20260507111100 | 50 | 34 | 2.0 | 6.0 | 0.00 | 0.00 | 0.00 | 77 | 1015.7 |
| 20260507110600 | 51 | 51 | 0.0 | 10.0 | 0.00 | 0.00 | 0.00 | 78 | 1015.6 |
| 20260507110002 | 50 | 52 | 5.0 | 10.0 | 0.00 | 0.00 | 0.00 | 79 | 1015.5 |
| 20260507105559 | 49 | 343 | 1.0 | 13.0 | 0.00 | 0.00 | 0.00 | 79 | 1015.5 |
| 20260507105500 | 49 | 32 | 1.0 | 13.0 | 0.00 | 0.00 | 0.00 | 79 | 1015.5 |
| 20260507105059 | 49 | 46 | 5.0 | 13.0 | 0.00 | 0.00 | 0.00 | 79 | 1015.5 |
| 20260507104605 | 49 | 22 | 5.0 | 10.0 | 0.00 | 0.00 | 0.00 | 79 | 1015.4 |
| 20260507104101 | 49 | 59 | 3.0 | 10.0 | 0.00 | 0.00 | 0.00 | 80 | 1015.4 |
| 20260507103602 | 49 | 19 | 3.0 | 9.0 | 0.00 | 0.00 | 0.00 | 79 | 1015.4 |
| 20260507103059 | 49 | 78 | 3.0 | 9.0 | 0.00 | 0.00 | 0.00 | 80 | 1015.4 |
| 20260507102600 | 49 | 30 | 3.0 | 6.0 | 0.00 | 0.00 | 0.00 | 80 | 1015.2 |
| 20260507102105 | 49 | 323 | 3.0 | 11.0 | 0.00 | 0.00 | 0.00 | 79 | 1015.2 |
| 20260507101602 | 49 | 327 | 5.0 | 11.0 | 0.00 | 0.00 | 0.00 | 78 | 1015.2 |
| 20260507101102 | 49 | 336 | 3.0 | 10.0 | 0.00 | 0.00 | 0.00 | 78 | 1015.1 |
| 20260507100559 | 50 | 33 | 4.0 | 15.0 | 0.00 | 0.00 | 0.00 | 78 | 1014.9 |
| 20260507100504 | 50 | 107 | 4.0 | 15.0 | 0.00 | 0.00 | 0.00 | 78 | 1014.9 |
| 20260507095559 | 49 | 71 | 4.0 | 12.0 | 0.00 | 0.00 | 0.00 | 79 | 1015.0 |
| 20260507095100 | 49 | 51 | 7.0 | 12.0 | 0.00 | 0.00 | 0.00 | 80 | 1014.9 |
| 20260507094600 | 49 | 22 | 7.0 | 12.0 | 0.00 | 0.00 | 0.00 | 80 | 1015.0 |
| 20260507094103 | 49 | 31 | 6.0 | 12.0 | 0.00 | 0.00 | 0.00 | 80 | 1015.0 |
| 20260507093559 | 48 | 329 | 1.0 | 10.0 | 0.00 | 0.00 | 0.00 | 81 | 1015.0 |
| 20260507093059 | 48 | 336 | 5.0 | 12.0 | 0.00 | 0.00 | 0.00 | 81 | 1015.0 |
| 20260507092559 | 48 | 42 | 5.0 | 12.0 | 0.00 | 0.00 | 0.00 | 81 | 1015.0 |
| 20260507092104 | 48 | 15 | 5.0 | 11.0 | 0.00 | 0.00 | 0.00 | 82 | 1014.8 |
| 20260507091600 | 48 | 57 | 3.0 | 9.0 | 0.00 | 0.00 | 0.00 | 82 | 1014.8 |
| 20260507091102 | 47 | 39 | 3.0 | 12.0 | 0.00 | 0.00 | 0.00 | 83 | 1014.8 |
| 20260507091002 | 47 | 329 | 3.0 | 12.0 | 0.00 | 0.00 | 0.00 | 83 | 1014.9 |
| 20260507090600 | 47 | 24 | 4.0 | 12.0 | 0.00 | 0.00 | 0.00 | 83 | 1014.9 |
| 20260507090105 | 47 | 306 | 4.0 | 7.0 | 0.00 | 0.00 | 0.00 | 83 | 1014.9 |
| 20260507085559 | 47 | 296 | 1.0 | 6.0 | 0.00 | 0.01 | 0.00 | 83 | 1014.8 |
| 20260507085100 | 47 | 10 | 3.0 | 10.0 | 0.00 | 0.01 | 0.00 | 84 | 1014.7 |
| 20260507084600 | 47 | 323 | 5.0 | 12.0 | 0.00 | 0.01 | 0.00 | 84 | 1014.6 |
| 20260507084059 | 47 | 36 | 3.0 | 12.0 | 0.00 | 0.01 | 0.00 | 84 | 1014.5 |
| 20260507083603 | 47 | 50 | 2.0 | 11.0 | 0.00 | 0.01 | 0.00 | 84 | 1014.4 |
| 20260507083100 | 46 | 52 | 4.0 | 11.0 | 0.00 | 0.01 | 0.00 | 84 | 1014.1 |
| 20260507082601 | 47 | 324 | 4.0 | 11.0 | 0.00 | 0.01 | 0.00 | 84 | 1014.1 |
| 20260507082100 | 47 | 323 | 3.0 | 11.0 | 0.00 | 0.01 | 0.00 | 84 | 1014.0 |
| 20260507081603 | 47 | 11 | 6.0 | 11.0 | 0.00 | 0.01 | 0.00 | 84 | 1013.9 |
| 20260507081104 | 47 | 23 | 2.0 | 9.0 | 0.00 | 0.01 | 0.00 | 85 | 1014.0 |
| 20260507080600 | 46 | 47 | 4.0 | 10.0 | 0.00 | 0.01 | 0.00 | 84 | 1013.9 |
| 20260507080120 | 47 | 36 | 4.0 | 10.0 | 0.00 | 0.01 | 0.00 | 84 | 1013.9 |
| 20260507080002 | 47 | 56 | 3.0 | 9.0 | 0.00 | 0.01 | 0.00 | 84 | 1013.9 |
| 20260507075602 | 47 | 339 | 4.0 | 9.0 | 0.00 | 0.01 | 0.00 | 84 | 1013.8 |
| 20260507075101 | 46 | 34 | 2.0 | 9.0 | 0.00 | 0.01 | 0.00 | 84 | 1013.8 |
| 20260507074600 | 47 | 32 | 3.0 | 11.0 | 0.00 | 0.01 | 0.00 | 84 | 1013.7 |
| 20260507074100 | 47 | 299 | 3.0 | 11.0 | 0.00 | 0.01 | 0.00 | 84 | 1013.7 |
| 20260507073603 | 47 | 36 | 2.0 | 11.0 | 0.00 | 0.01 | 0.00 | 84 | 1013.7 |
| 20260507073100 | 47 | 59 | 4.0 | 12.0 | 0.00 | 0.01 | 0.00 | 84 | 1013.7 |
| 20260507072602 | 46 | 57 | 5.0 | 12.0 | 0.00 | 0.01 | 0.00 | 84 | 1013.6 |
| 20260507072100 | 46 | 46 | 4.0 | 8.0 | 0.00 | 0.01 | 0.00 | 85 | 1013.6 |
| 20260507071605 | 46 | 317 | 2.0 | 9.0 | 0.00 | 0.01 | 0.00 | 85 | 1013.6 |
| 20260507071100 | 46 | 350 | 4.0 | 9.0 | 0.00 | 0.01 | 0.00 | 85 | 1013.5 |
| 20260507070559 | 46 | 29 | 4.0 | 8.0 | 0.00 | 0.01 | 0.00 | 85 | 1013.4 |
| 20260507070106 | 46 | 16 | 2.0 | 7.0 | 0.00 | 0.01 | 0.00 | 85 | 1013.4 |
| 20260507070002 | 46 | 336 | 2.0 | 10.0 | 0.00 | 0.01 | 0.00 | 85 | 1013.4 |
| 20260507065603 | 46 | 338 | 3.0 | 12.0 | 0.00 | 0.01 | 0.00 | 85 | 1013.3 |
| 20260507065501 | 46 | 10 | 3.0 | 12.0 | 0.00 | 0.01 | 0.00 | 85 | 1013.3 |
| 20260507065059 | 46 | 5 | 5.0 | 12.0 | 0.00 | 0.01 | 0.00 | 85 | 1013.4 |
| 20260507064634 | 46 | 45 | 3.0 | 11.0 | 0.00 | 0.01 | 0.00 | 85 | 1013.4 |
| 20260507064103 | 46 | 298 | 1.0 | 6.0 | 0.00 | 0.01 | 0.00 | 85 | 1013.4 |
| 20260507063600 | 46 | 55 | 3.0 | 10.0 | 0.00 | 0.01 | 0.00 | 85 | 1013.4 |
| 20260507063126 | 46 | 57 | 5.0 | 11.0 | 0.00 | 0.01 | 0.00 | 86 | 1013.3 |
| 20260507062600 | 46 | 54 | 5.0 | 11.0 | 0.00 | 0.01 | 0.00 | 86 | 1013.4 |
| 20260507062100 | 46 | 29 | 4.0 | 8.0 | 0.00 | 0.01 | 0.00 | 86 | 1013.3 |
| 20260507061600 | 46 | 44 | 3.0 | 9.0 | 0.00 | 0.01 | 0.00 | 86 | 1013.3 |
| 20260507061059 | 46 | 321 | 5.0 | 9.0 | 0.00 | 0.01 | 0.00 | 86 | 1013.3 |
| 20260507060559 | 46 | 317 | 3.0 | 10.0 | 0.00 | 0.01 | 0.00 | 86 | 1013.2 |
| 20260507060114 | 46 | 10 | 5.0 | 11.0 | 0.00 | 0.01 | 0.00 | 86 | 1013.2 |
| 20260507055558 | 46 | 38 | 4.0 | 12.0 | 0.00 | 0.01 | 0.00 | 86 | 1013.1 |
| 20260507055057 | 46 | 47 | 4.0 | 12.0 | 0.00 | 0.01 | 0.00 | 86 | 1013.2 |
| 20260507054607 | 45 | 57 | 2.0 | 10.0 | 0.00 | 0.01 | 0.00 | 86 | 1013.0 |
| 20260507054058 | 45 | 53 | 2.0 | 10.0 | 0.00 | 0.01 | 0.00 | 86 | 1012.9 |
| 20260507053558 | 46 | 63 | 1.0 | 10.0 | 0.00 | 0.01 | 0.00 | 86 | 1012.8 |
| 20260507053109 | 46 | 76 | 3.0 | 10.0 | 0.00 | 0.01 | 0.00 | 86 | 1012.6 |
| 20260507052557 | 45 | 39 | 4.0 | 10.0 | 0.00 | 0.01 | 0.00 | 86 | 1012.6 |
| 20260507052058 | 45 | 44 | 4.0 | 10.0 | 0.00 | 0.01 | 0.00 | 86 | 1012.6 |
| 20260507051608 | 45 | 11 | 5.0 | 11.0 | 0.00 | 0.01 | 0.00 | 86 | 1012.5 |
| 20260507051059 | 45 | 53 | 6.0 | 11.0 | 0.00 | 0.01 | 0.00 | 87 | 1012.3 |
| 20260507050600 | 45 | 88 | 4.0 | 13.0 | 0.00 | 0.01 | 0.00 | 87 | 1012.4 |
| 20260507050058 | 45 | 42 | 5.0 | 13.0 | 0.00 | 0.01 | 0.00 | 87 | 1012.4 |
| 20260507045559 | 45 | 315 | 3.0 | 9.0 | 0.00 | 0.01 | 0.00 | 87 | 1012.4 |
| 20260507045058 | 45 | 22 | 4.0 | 9.0 | 0.00 | 0.01 | 0.00 | 87 | 1012.3 |
| 20260507044600 | 45 | 16 | 2.0 | 6.0 | 0.00 | 0.01 | 0.00 | 87 | 1012.2 |
| 20260507044058 | 45 | 326 | 1.0 | 6.0 | 0.00 | 0.01 | 0.00 | 87 | 1012.1 |
| 20260507043559 | 45 | 65 | 3.0 | 7.0 | 0.00 | 0.01 | 0.00 | 87 | 1012.1 |
| 20260507043100 | 45 | 49 | 2.0 | 9.0 | 0.00 | 0.01 | 0.00 | 87 | 1012.0 |
| 20260507042559 | 45 | 43 | 2.0 | 9.0 | 0.00 | 0.01 | 0.00 | 88 | 1011.9 |
| 20260507042058 | 45 | 53 | 3.0 | 9.0 | 0.00 | 0.01 | 0.00 | 88 | 1012.0 |
| 20260507041559 | 45 | 333 | 3.0 | 9.0 | 0.00 | 0.01 | 0.00 | 88 | 1011.9 |
| 20260507041058 | 45 | 51 | 3.0 | 9.0 | 0.00 | 0.01 | 0.00 | 88 | 1012.0 |
| 20260507040559 | 44 | 73 | 2.0 | 8.0 | 0.00 | 0.01 | 0.00 | 88 | 1011.9 |
| 20260507040058 | 44 | 117 | 2.0 | 9.0 | 0.00 | 0.01 | 0.00 | 88 | 1011.9 |
| 20260507040001 | 44 | 52 | 4.0 | 9.0 | 0.00 | 0.01 | 0.00 | 88 | 1011.8 |
| 20260507035600 | 44 | 36 | 2.0 | 10.0 | 0.00 | 0.01 | 0.00 | 88 | 1011.8 |
| 20260507035059 | 44 | 23 | 3.0 | 10.0 | 0.00 | 0.01 | 0.00 | 88 | 1011.7 |
| 20260507034600 | 44 | 54 | 4.0 | 12.0 | 0.00 | 0.01 | 0.00 | 88 | 1011.7 |
| 20260507034059 | 44 | 51 | 5.0 | 12.0 | 0.00 | 0.01 | 0.00 | 88 | 1011.5 |
| 20260507033559 | 44 | 54 | 3.0 | 10.0 | 0.00 | 0.01 | 0.00 | 88 | 1011.5 |
| 20260507033059 | 44 | 54 | 4.0 | 10.0 | 0.00 | 0.01 | 0.00 | 88 | 1011.5 |
| 20260507032600 | 44 | 350 | 3.0 | 9.0 | 0.00 | 0.01 | 0.00 | 88 | 1011.5 |
| 20260507032101 | 44 | 38 | 3.0 | 9.0 | 0.00 | 0.01 | 0.00 | 88 | 1011.5 |
| 20260507031600 | 44 | 41 | 3.0 | 9.0 | 0.00 | 0.01 | 0.00 | 88 | 1011.4 |
| 20260507031059 | 44 | 327 | 3.0 | 9.0 | 0.00 | 0.01 | 0.00 | 88 | 1011.3 |
| 20260507030559 | 44 | 15 | 3.0 | 7.0 | 0.00 | 0.01 | 0.00 | 88 | 1011.2 |
| 20260507025558 | 44 | 5 | 3.0 | 10.0 | 0.00 | 0.01 | 0.00 | 88 | 1011.2 |
| 20260507025058 | 44 | 24 | 3.0 | 11.0 | 0.00 | 0.01 | 0.00 | 88 | 1011.1 |
| 20260507024558 | 44 | 66 | 5.0 | 14.0 | 0.00 | 0.01 | 0.00 | 88 | 1011.0 |
| 20260507024058 | 44 | 39 | 4.0 | 14.0 | 0.00 | 0.01 | 0.00 | 88 | 1011.0 |
| 20260507023558 | 44 | 49 | 4.0 | 11.0 | 0.00 | 0.01 | 0.00 | 88 | 1011.0 |
| 20260507023058 | 44 | 56 | 3.0 | 11.0 | 0.00 | 0.01 | 0.00 | 88 | 1010.9 |
| 20260507022559 | 44 | 323 | 3.0 | 8.0 | 0.00 | 0.01 | 0.00 | 88 | 1010.8 |
| 20260507022100 | 45 | 317 | 3.0 | 8.0 | 0.00 | 0.01 | 0.00 | 88 | 1010.8 |
| 20260507021559 | 45 | 19 | 4.0 | 11.0 | 0.00 | 0.01 | 0.00 | 88 | 1010.7 |
| 20260507021058 | 45 | 321 | 4.0 | 11.0 | 0.00 | 0.01 | 0.00 | 88 | 1010.6 |
| 20260507020558 | 45 | 36 | 2.0 | 12.0 | 0.00 | 0.01 | 0.00 | 88 | 1010.8 |
| 20260507020118 | 45 | 44 | 4.0 | 9.0 | 0.00 | 0.01 | 0.00 | 88 | 1010.8 |
| 20260507020002 | 45 | 33 | 4.0 | 9.0 | 0.00 | 0.01 | 0.00 | 88 | 1010.8 |
| 20260507015559 | 45 | 64 | 1.0 | 9.0 | 0.00 | 0.01 | 0.00 | 88 | 1010.8 |
| 20260507015059 | 45 | 36 | 1.0 | 10.0 | 0.00 | 0.01 | 0.00 | 88 | 1010.8 |
| 20260507014602 | 45 | 315 | 3.0 | 10.0 | 0.00 | 0.01 | 0.00 | 92 | 1010.7 |
| 20260507014059 | 45 | 64 | 3.0 | 10.0 | 0.00 | 0.01 | 0.00 | 92 | 1010.7 |
| 20260507013558 | 45 | 338 | 3.0 | 8.0 | 0.00 | 0.01 | 0.00 | 88 | 1010.7 |
| 20260507013059 | 45 | 313 | 1.0 | 8.0 | 0.00 | 0.01 | 0.00 | 88 | 1010.7 |
| 20260507012602 | 45 | 18 | 3.0 | 8.0 | 0.00 | 0.01 | 0.00 | 88 | 1010.7 |
| 20260507012100 | 45 | 338 | 3.0 | 6.0 | 0.00 | 0.01 | 0.00 | 88 | 1010.8 |
| 20260507011559 | 45 | 15 | 2.0 | 8.0 | 0.00 | 0.01 | 0.00 | 88 | 1010.7 |
| 20260507011059 | 45 | 15 | 2.0 | 8.0 | 0.00 | 0.01 | 0.00 | 88 | 1010.7 |
| 20260507010600 | 45 | 40 | 2.0 | 5.0 | 0.00 | 0.01 | 0.00 | 88 | 1010.7 |
| 20260507010114 | 45 | 77 | 0.0 | 4.0 | 0.00 | 0.01 | 0.00 | 88 | 1010.7 |
| 20260507005558 | 45 | 326 | 2.0 | 5.0 | 0.00 | 0.02 | 0.00 | 88 | 1010.6 |
| 20260507005057 | 45 | 317 | 3.0 | 5.0 | 0.00 | 0.02 | 0.00 | 88 | 1010.6 |
| 20260507004558 | 45 | 12 | 1.0 | 5.0 | 0.00 | 0.02 | 0.00 | 88 | 1010.7 |
| 20260507004059 | 45 | 315 | 1.0 | 5.0 | 0.00 | 0.02 | 0.00 | 88 | 1010.8 |
| 20260507003559 | 45 | 34 | 1.0 | 5.0 | 0.00 | 0.02 | 0.00 | 88 | 1010.7 |
| 20260507003058 | 45 | 50 | 2.0 | 5.0 | 0.00 | 0.02 | 0.00 | 88 | 1010.7 |
| 20260507002558 | 45 | 51 | 2.0 | 5.0 | 0.00 | 0.02 | 0.00 | 88 | 1010.7 |
| 20260507002058 | 45 | 52 | 2.0 | 6.0 | 0.00 | 0.02 | 0.00 | 88 | 1010.7 |
| 20260507001605 | 45 | 40 | 3.0 | 6.0 | 0.00 | 0.02 | 0.00 | 88 | 1010.7 |
| 20260507001058 | 45 | 54 | 3.0 | 6.0 | 0.00 | 0.02 | 0.00 | 88 | 1010.7 |
| 20260507000601 | 45 | 47 | 3.0 | 9.0 | 0.00 | 0.02 | 0.00 | 88 | 1010.6 |
| 20260507000059 | 45 | 18 | 4.0 | 9.0 | 0.00 | 0.02 | 0.00 | 88 | 1010.6 |
| 20260506235557 | 45 | 17 | 1.0 | 5.0 | 0.00 | 0.06 | 0.00 | 88 | 1010.6 |
| 20260506235100 | 45 | 19 | 3.0 | 5.0 | 0.00 | 0.06 | 0.00 | 88 | 1010.6 |
| 20260506234600 | 45 | 47 | 3.0 | 6.0 | 0.00 | 0.06 | 0.00 | 88 | 1010.6 |
| 20260506234057 | 45 | 36 | 1.0 | 7.0 | 0.00 | 0.06 | 0.00 | 88 | 1010.6 |
| 20260506233559 | 46 | 45 | 1.0 | 7.0 | 0.00 | 0.06 | 0.00 | 88 | 1010.6 |
| 20260506233100 | 46 | 43 | 4.0 | 8.0 | 0.00 | 0.06 | 0.00 | 88 | 1010.6 |
| 20260506232602 | 46 | 70 | 2.0 | 7.0 | 0.00 | 0.06 | 0.00 | 88 | 1010.6 |
| 20260506232059 | 46 | 51 | 3.0 | 6.0 | 0.00 | 0.06 | 0.00 | 88 | 1010.5 |
| 20260506231611 | 46 | 63 | 3.0 | 6.0 | 0.00 | 0.06 | 0.00 | 88 | 1010.6 |
| 20260506231059 | 46 | 46 | 2.0 | 6.0 | 0.00 | 0.06 | 0.00 | 88 | 1010.6 |
| 20260506230558 | 46 | 82 | 2.0 | 5.0 | 0.00 | 0.06 | 0.00 | 88 | 1010.4 |
| 20260506230116 | 46 | 63 | 1.0 | 5.0 | 0.00 | 0.06 | 0.00 | 88 | 1010.0 |
| 20260506225600 | 46 | 49 | 1.0 | 7.0 | 0.00 | 0.06 | 0.00 | 88 | 1010.0 |
| 20260506225059 | 46 | 350 | 2.0 | 9.0 | 0.00 | 0.06 | 0.00 | 88 | 1009.9 |
| 20260506224603 | 46 | 302 | 4.0 | 9.0 | 0.00 | 0.06 | 0.00 | 88 | 1009.8 |
| 20260506224101 | 46 | 299 | 2.0 | 6.0 | 0.00 | 0.06 | 0.00 | 88 | 1009.8 |
| 20260506223600 | 46 | 18 | 3.0 | 6.0 | 0.00 | 0.06 | 0.00 | 88 | 1009.7 |
| 20260506223103 | 46 | 214 | 2.0 | 8.0 | 0.00 | 0.06 | 0.00 | 88 | 1009.7 |
| 20260506222600 | 46 | 10 | 4.0 | 9.0 | 0.00 | 0.06 | 0.00 | 88 | 1009.7 |
| 20260506222100 | 47 | 335 | 2.0 | 7.0 | 0.00 | 0.06 | 0.00 | 88 | 1009.7 |
| 20260506221631 | 47 | 36 | 0.0 | 9.0 | 0.00 | 0.06 | 0.00 | 88 | 1009.8 |
| 20260506221501 | 47 | 38 | 0.0 | 9.0 | 0.00 | 0.06 | 0.00 | 88 | 1009.7 |
| 20260506221100 | 47 | 320 | 3.0 | 9.0 | 0.00 | 0.06 | 0.00 | 88 | 1009.7 |
| 20260506220600 | 47 | 328 | 2.0 | 9.0 | 0.00 | 0.06 | 0.00 | 88 | 1009.7 |
| 20260506220133 | 47 | 344 | 4.0 | 9.0 | 0.00 | 0.06 | 0.00 | 88 | 1009.7 |
| 20260506220005 | 47 | 33 | 2.0 | 7.0 | 0.00 | 0.06 | 0.06 | 88 | 1009.7 |
| 20260506215600 | 47 | 16 | 1.0 | 7.0 | 0.00 | 0.06 | 0.06 | 88 | 1009.6 |
| 20260506215059 | 47 | 323 | 3.0 | 6.0 | 0.00 | 0.06 | 0.06 | 88 | 1009.6 |
| 20260506214600 | 47 | 78 | 1.0 | 5.0 | 0.00 | 0.06 | 0.06 | 88 | 1009.7 |
| 20260506214101 | 47 | 50 | 3.0 | 8.0 | 0.00 | 0.06 | 0.06 | 88 | 1009.6 |